Dewpoint
62 57 54 55 49 45 41 33 11 16 19 14 21 21 11 22 23 21 19 21 16 17 20 53 56 49 15 41 53 59 61 51 51 40 41 52 66 67 69 70 72 73 73 74 74 74 74 74 74 73 73 73 73 73 72 72 71 72 72 72 72 72 72 72 72 71 71 71 71 70 70 70 69 69 69 68 68 68 68 68 67 67 66 66 67 66 67 67 67 69 68 68 68 69 69 69 69
53 50 50 51 46 42 39 25 21 21 23 18 16 23 21 22 30 22 21 20 15 17 39 55 55 57 58 58 59 52 56 63 63 61 65 68 69 69 71 72 72 72 73 74 74 74 73 74 74 74 73 73 73 72 72 72 72 72 72 72 72 72 72 72 71 71 71 71 71 70 70 70 69 69 69 68 68 68 69 68 67 67 66 65 66 67 67 66 67 68 68 68 68 68 69 69 69
53 45 43 47 42 44 41 31 19 22 20 12 12 20 22 20 17 19 21 21 15 16 39 41 53 52 56 56 54 46 48 64 65 65 66 68 66 68 71 72 72 73 73 74 73 73 73 74 74 74 73 72 72 73 73 73 73 73 72 71 71 72 72 71 71 71 71 71 70 70 70 70 69 69 68 68 68 69 69 68 67 67 68 68 67 68 67 67 68 68 68 69 68 68 68 68 68
52 51 43 45 38 35 33 31 27 19 18 16 18 15 21 21 19 15 10 12 12 12 15 52 56 57 54 56 57 60 60 62 65 65 65 66 66 70 71 72 73 73 73 73 73 73 73 73 74 74 73 73 73 73 73 73 73 73 72 71 72 72 72 71 71 71 71 71 71 70 70 70 69 69 68 68 68 70 69 69 68 68 69 69 69 69 68 67 68 68 68 68 68 68 68 68 67
45 51 50 43 34 34 31 32 28 22 18 20 10 13 23 17 14 9 8 9 10 9 35 51 56 57 58 57 57 56 57 64 65 66 66 68 70 71 72 72 73 73 73 73 73 73 73 74 74 73 73 73 73 73 73 73 73 73 73 73 72 72 71 71 71 70 70 70 70 70 70 69 69 69 68 68 68 70 69 69 70 70 70 70 69 69 69 69 68 68 68 68 68 69 68 68 68
41 42 46 43 36 34 30 27 28 24 23 21 17 18 20 20 20 15 11 10 11 11 25 45 55 55 59 60 61 60 64 61 65 65 67 68 70 72 72 72 72 72 73 73 73 72 73 74 73 73 74 73 73 73 73 73 73 73 73 72 72 72 71 71 70 70 70 70 70 70 69 70 69 69 69 69 69 70 70 70 70 70 70 70 70 69 69 68 68 68 68 69 69 69 69 68 68
36 35 36 33 33 33 29 27 27 26 26 22 22 22 23 22 22 16 17 9 17 29 46 56 58 58 58 59 62 65 66 65 65 66 68 69 70 71 72 71 72 72 73 73 72 73 73 73 73 73 73 73 73 73 73 73 73 73 73 73 72 72 71 71 70 70 70 70 70 69 70 71 70 69 69 69 69 69 69 70 70 70 70 70 69 69 69 69 69 69 69 69 69 69 68 67 68
44 33 35 30 28 28 27 27 27 28 26 26 25 24 24 24 24 20 17 14 12 21 55 57 57 57 56 63 59 65 66 66 67 68 69 69 70 70 71 71 71 72 73 73 73 73 74 73 73 73 73 73 73 73 73 73 73 73 73 72 73 72 71 71 71 71 71 70 70 70 70 71 70 70 69 69 69 69 70 71 72 71 71 69 69 69 70 70 69 69 69 69 69 68 67 67 68
39 34 38 24 25 26 21 20 23 26 27 26 25 27 40 31 29 24 19 11 9 34 54 56 57 55 59 63 62 65 66 67 68 68 68 68 68 70 71 71 71 72 72 73 73 73 73 73 73 73 73 73 73 73 73 73 73 73 73 72 72 72 72 71 71 71 71 71 71 70 70 70 70 70 69 70 70 71 72 72 71 71 70 70 69 70 70 70 70 70 70 69 68 68 68 68 68
38 31 28 29 27 24 25 23 22 19 19 21 22 21 21 20 18 19 18 9 8 53 54 60 59 57 62 61 63 64 65 66 66 66 67 68 69 70 70 71 71 71 72 72 73 73 73 74 73 73 73 73 73 73 73 73 73 73 73 72 72 72 72 72 71 71 71 71 71 71 71 71 70 70 70 70 71 72 72 72 71 71 70 70 70 70 70 70 70 70 69 68 69 70 69 68 69
34 30 33 26 26 24 23 22 24 24 24 24 23 22 20 19 16 12 10 6 20 52 55 58 59 60 62 62 63 65 65 65 65 65 67 68 69 70 70 71 71 71 72 72 73 73 73 73 74 73 73 73 73 73 73 73 73 73 73 72 72 72 72 72 72 71 72 72 71 71 71 71 71 70 70 71 72 72 72 71 71 70 70 70 70 70 70 70 70 70 69 69 70 70 69 69 69
31 29 26 25 25 24 24 24 23 23 21 19 16 14 16 16 12 10 16 17 15 54 51 57 58 61 60 62 62 65 65 65 65 66 67 69 69 70 70 71 71 72 72 72 72 73 73 73 73 73 73 73 73 73 73 73 73 73 72 72 72 72 72 72 72 72 72 72 72 71 71 71 70 70 71 72 72 71 71 71 70 70 70 70 70 70 70 70 70 69 69 70 70 70 69 68 69
34 27 23 23 23 24 27 22 20 26 23 15 11 10 12 11 11 11 12 13 24 44 49 57 60 60 58 61 65 65 65 66 66 67 68 69 70 70 71 71 71 71 72 72 72 72 72 72 72 72 73 73 73 73 73 73 73 72 72 72 72 72 72 72 72 72 72 72 72 71 71 71 71 71 72 71 71 71 71 71 71 70 70 71 70 70 70 70 70 70 70 70 69 70 69 69 69
33 29 26 24 23 20 19 19 18 18 15 9 9 11 15 12 13 11 17 38 45 52 56 59 61 61 61 63 64 63 64 66 67 68 69 70 70 70 70 71 71 71 72 71 71 72 72 72 72 72 72 72 72 73 73 73 72 72 72 72 72 72 72 72 72 72 72 72 72 71 71 72 72 71 71 71 72 71 71 71 70 70 70 70 70 70 70 70 70 70 70 70 70 70 69 69 68
33 30 28 27 24 20 19 19 15 12 8 10 11 12 13 20 15 13 21 40 52 58 60 58 61 54 59 61 61 62 64 66 67 69 69 69 70 70 70 70 71 71 71 71 71 71 71 72 71 71 72 72 72 72 72 72 72 72 72 72 72 72 71 72 72 71 71 72 72 72 72 72 72 72 71 71 71 71 70 70 70 70 70 71 71 70 70 70 70 70 70 70 70 70 70 69 69
35 23 24 24 20 18 17 15 14 11 11 10 10 14 12 11 11 15 19 24 46 54 55 52 57 57 60 61 63 64 65 66 67 68 68 68 69 69 70 70 70 70 70 70 71 71 71 71 71 71 71 71 71 71 71 71 72 72 72 72 72 72 72 71 71 71 72 72 72 72 72 71 71 71 72 71 71 71 70 70 70 70 70 70 70 70 70 70 70 70 70 70 70 70 69 69 69
26 23 22 17 17 15 14 13 11 9 10 10 10 12 10 10 10 22 41 52 52 57 62 63 61 63 61 63 64 65 65 65 67 67 67 67 68 68 68 69 69 69 70 70 70 70 71 71 70 70 70 71 71 71 71 71 71 72 72 72 72 72 72 71 71 72 70 71 71 71 71 70 70 71 71 70 71 70 70 70 70 70 70 70 70 70 70 70 70 70 70 70 70 69 69 69 69
22 23 21 20 17 15 18 15 10 8 8 8 9 12 7 7 8 12 37 54 59 61 62 63 63 64 64 63 64 64 64 65 66 65 65 66 67 66 66 67 68 67 69 69 70 70 70 70 70 70 70 70 70 70 70 70 71 71 71 71 71 71 71 71 71 71 71 70 71 70 70 70 69 69 70 71 70 70 70 70 70 70 70 70 70 70 70 70 70 70 70 70 70 70 69 65 67
23 23 21 18 17 16 15 15 12 9 10 9 10 10 9 9 10 12 36 47 57 60 61 62 62 63 63 63 63 63 63 64 64 64 64 65 65 65 65 66 66 67 68 68 69 69 70 70 70 69 70 70 70 70 70 70 71 71 71 71 71 71 71 71 70 70 69 69 69 69 70 69 69 69 70 70 70 70 70 70 70 70 70 70 70 70 70 70 70 70 70 70 70 68 65 64 64
24 21 17 17 16 15 14 12 12 12 12 10 11 10 8 6 8 14 18 39 58 59 60 61 61 61 62 62 62 62 63 63 63 64 64 64 65 64 64 65 65 66 67 68 68 69 69 69 69 69 70 70 70 69 69 70 70 70 70 70 70 70 70 70 69 69 69 69 69 69 69 69 68 69 71 71 70 69 69 69 70 70 70 69 69 69 70 70 70 70 70 69 67 66 65 64 63
17 21 18 17 16 15 16 15 14 13 12 10 11 11 7 6 8 15 25 39 45 53 61 61 61 62 62 61 61 61 62 62 62 63 63 63 63 64 64 64 64 65 66 67 67 68 68 68 68 68 69 70 69 69 69 70 70 70 70 70 70 70 69 69 69 68 68 68 68 69 68 68 68 68 69 69 68 68 66 67 68 67 66 66 68 63 64 65 65 64 64 64 63 65 65 63 62
15 19 19 16 14 11 12 12 14 13 14 13 9 8 8 9 10 11 13 9 24 38 56 62 63 63 62 61 60 61 61 61 61 62 62 63 63 63 63 63 64 63 64 65 66 68 68 68 68 68 69 69 69 69 69 70 70 70 70 70 70 70 69 69 69 68 67 68 67 67 68 67 67 67 67 67 67 66 66 66 66 65 65 65 65 62 62 61 62 62 61 62 61 63 64 64 63
18 16 13 13 15 14 15 13 11 11 11 9 8 8 9 10 10 12 11 10 14 26 56 62 63 63 63 61 60 60 60 60 61 61 62 62 62 62 63 63 64 64 64 64 65 67 67 68 68 68 68 68 68 69 70 70 69 70 70 70 69 69 69 69 69 68 67 67 67 68 67 66 66 66 67 66 66 66 66 65 65 65 65 64 64 63 62 62 61 61 61 60 60 61 64 64 63
17 15 13 13 12 13 13 13 12 12 11 9 9 10 8 8 5 10 9 8 12 36 60 63 63 63 62 60 60 60 60 60 61 61 62 62 62 62 63 63 64 63 64 63 64 66 67 67 67 67 67 67 67 69 69 69 69 69 70 70 69 69 69 69 68 68 67 67 67 67 67 66 66 66 66 66 65 65 65 65 64 64 64 64 64 63 62 61 60 60 60 60 60 60 65 64 63
12 12 13 12 13 11 11 12 11 10 10 9 10 9 8 8 7 8 6 19 54 60 62 63 62 62 61 61 60 60 60 60 60 61 61 61 62 62 62 62 63 63 63 63 63 65 66 66 66 66 66 66 67 68 68 68 69 69 69 69 68 69 68 68 68 68 67 67 67 67 67 66 65 65 65 65 65 65 65 64 64 63 63 64 64 62 62 61 60 60 60 60 59 61 64 63 63
14 15 15 12 12 11 9 9 8 8 9 12 10 8 9 8 11 8 7 41 60 61 62 62 62 61 61 60 60 60 60 60 60 60 61 61 62 62 62 63 63 62 63 63 63 64 65 66 65 65 65 66 66 67 67 68 68 69 69 68 68 68 68 68 68 67 67 67 67 67 67 66 66 65 65 65 65 65 64 63 63 62 62 62 63 63 61 61 60 59 59 60 60 62 64 63 62
11 11 10 10 9 9 8 6 6 6 8 10 7 7 7 9 9 4 14 55 61 61 61 62 61 61 61 60 60 60 60 60 60 61 61 61 62 62 62 62 63 63 63 63 63 64 66 66 65 65 66 67 66 66 66 67 68 68 68 68 68 67 67 68 67 67 67 66 67 66 66 66 66 65 65 65 64 64 64 64 63 62 62 61 63 63 61 62 60 60 60 60 60 64 63 62 62
13 11 10 7 6 8 8 10 7 10 10 9 7 7 9 10 8 6 8 58 61 61 61 61 61 61 61 60 60 60 60 60 60 61 61 61 62 62 62 62 63 63 63 63 64 65 65 65 65 65 65 65 65 65 65 66 67 68 68 68 68 67 67 67 67 67 66 66 66 66 66 66 66 65 65 65 65 64 64 63 63 62 62 61 62 62 62 61 61 60 61 62 62 64 62 62 62
12 11 8 8 6 4 8 6 10 11 10 9 9 8 7 9 7 8 18 59 60 60 60 60 60 60 60 60 60 59 59 60 60 61 61 61 62 63 62 63 63 63 63 63 64 65 65 65 65 65 65 65 65 65 65 65 66 67 68 68 67 67 67 67 66 66 66 66 66 66 66 66 66 65 65 65 66 64 64 63 63 63 63 63 62 62 62 61 62 62 62 63 63 62 62 62 62
18 11 8 3 7 3 4 11 17 10 11 10 9 6 6 7 8 11 50 59 59 60 60 60 60 60 60 60 60 59 59 60 60 61 61 62 62 62 62 63 63 63 63 64 64 64 65 66 66 65 65 64 64 64 64 65 65 66 68 68 67 67 67 67 66 66 66 66 67 66 66 66 66 66 65 65 64 63 64 64 64 64 63 63 62 62 62 62 62 62 62 63 64 62 61 61 61
8 10 7 7 5 6 6 9 8 5 12 11 8 11 5 5 6 11 31 58 58 58 59 60 60 60 60 60 60 59 59 60 60 61 61 62 62 62 63 62 62 62 64 64 64 64 66 66 66 66 66 64 65 64 65 64 65 66 67 67 67 67 66 66 66 65 65 66 67 67 67 66 66 66 65 65 64 63 63 64 64 64 64 63 62 62 63 63 62 62 63 62 62 61 61 61 61
14 7 9 17 5 6 5 11 6 5 7 11 7 16 6 6 6 8 18 56 58 57 59 59 59 60 60 60 59 59 59 60 60 60 61 61 62 62 63 62 62 63 63 64 64 65 65 66 66 66 66 65 64 64 64 64 65 66 67 68 67 67 66 66 66 66 66 66 67 67 67 66 66 66 65 65 64 63 63 64 64 64 64 63 63 63 64 63 62 63 63 63 62 61 61 60 61
18 12 20 15 12 7 4 6 11 8 8 8 7 4 6 5 7 9 28 56 56 56 58 58 59 59 60 60 59 59 59 59 60 60 61 61 62 62 63 63 64 64 64 64 64 65 65 66 66 66 65 65 64 64 64 64 65 66 66 67 67 67 66 66 66 66 66 66 67 67 67 67 66 65 65 64 64 63 63 64 64 64 64 64 64 64 63 63 62 63 62 62 62 61 61 61 60
16 19 12 20 9 11 7 7 8 10 6 4 6 6 6 7 10 8 15 51 54 54 56 58 58 59 59 59 59 60 59 59 59 60 60 62 62 63 64 65 64 64 64 64 64 65 65 66 66 66 66 65 64 65 64 65 65 65 66 66 67 66 66 66 66 66 66 66 67 67 67 67 66 65 65 64 64 64 64 64 64 65 64 64 64 64 63 63 62 62 61 61 62 62 61 61 61
13 14 16 15 13 13 8 8 7 7 6 7 14 8 6 5 5 7 12 16 48 51 54 56 57 58 58 59 59 60 59 59 59 60 61 62 62 63 64 64 64 64 64 64 64 65 65 66 66 66 66 65 64 65 65 64 65 65 66 66 67 67 66 66 66 65 66 66 67 67 67 66 66 65 64 64 64 64 63 63 64 64 64 64 64 63 63 63 62 62 62 62 62 61 61 61 62
17 13 13 16 12 11 9 9 10 10 9 4 5 6 4 5 5 8 16 34 32 43 53 54 56 57 57 58 59 60 60 59 59 61 61 63 63 64 64 64 64 64 64 64 65 65 65 65 66 66 66 65 64 64 64 64 65 65 65 66 66 66 65 65 65 66 66 66 66 67 66 66 65 65 64 64 64 64 64 63 63 64 64 64 63 62 62 62 62 62 62 62 61 62 61 62 63
12 13 11 12 9 8 9 10 10 13 9 7 6 8 6 7 8 15 21 34 50 52 52 54 54 54 55 55 58 59 60 60 60 61 62 63 64 64 64 64 64 63 64 64 65 65 65 65 66 65 65 64 64 64 64 64 64 65 65 65 64 64 65 65 65 66 65 66 66 66 65 65 65 64 64 64 64 65 63 63 63 64 64 64 63 63 62 62 62 62 62 62 62 61 62 62 62
10 12 11 7 9 8 9 9 12 15 18 9 9 8 8 8 15 26 23 23 34 48 51 52 53 53 54 55 57 59 59 59 61 62 62 62 64 64 64 64 64 63 64 64 64 65 65 66 66 65 65 64 63 63 64 64 65 65 65 64 63 63 63 63 64 65 65 65 65 65 64 64 64 64 64 64 64 64 63 63 63 64 64 63 63 63 62 64 62 62 62 62 62 61 61 62 62
19 12 14 14 10 10 11 16 20 15 11 12 12 6 6 11 26 31 33 35 40 37 43 50 52 53 53 53 56 57 58 58 59 61 62 63 64 64 64 64 63 63 64 64 65 65 65 66 65 65 64 63 62 62 64 64 63 65 65 64 63 63 64 63 65 65 66 65 65 64 64 64 64 64 64 64 63 63 63 63 63 64 64 63 62 62 62 62 62 62 62 62 61 61 61 62 61
18 16 14 11 12 12 12 21 20 14 21 15 15 7 16 27 27 30 36 42 45 48 47 46 48 49 52 53 56 58 58 58 60 61 62 63 64 64 64 64 64 63 64 64 64 65 65 66 65 65 64 63 61 62 64 63 64 64 64 64 63 63 62 64 64 64 64 64 63 64 64 64 64 64 64 64 64 64 63 63 63 63 63 63 63 62 62 62 61 62 62 61 61 60 61 61 60
24 20 14 15 13 17 14 19 21 25 20 27 18 23 18 23 29 36 40 44 49 50 51 52 53 53 51 52 55 57 58 59 60 61 62 64 64 64 64 64 64 63 63 64 65 65 65 65 65 65 64 63 61 62 63 63 63 63 63 63 63 62 63 63 63 63 64 64 64 64 64 65 65 64 64 64 65 63 63 63 63 63 63 63 63 63 63 62 62 62 61 61 61 61 60 60 60
19 25 14 13 13 16 19 23 19 20 16 18 13 10 12 21 33 34 38 46 49 51 52 52 53 54 55 54 52 53 56 57 59 60 62 64 64 64 64 64 63 63 63 64 65 65 65 65 65 64 64 63 62 62 63 63 63 63 62 61 60 60 60 61 61 62 63 63 63 64 65 65 65 64 64 65 64 64 63 63 63 63 63 63 63 63 63 62 61 61 61 61 61 61 61 60 59
13 15 20 14 13 19 17 16 17 10 10 21 24 13 9 21 35 35 34 44 49 52 52 52 53 54 55 55 55 52 56 57 60 61 62 61 63 64 63 63 63 63 63 64 65 65 65 66 65 64 64 63 62 63 63 63 62 62 62 62 61 61 60 61 62 63 63 64 64 64 64 65 65 65 64 64 64 64 63 63 63 63 64 63 63 63 62 62 61 61 61 61 61 61 60 59 59
14 18 23 19 17 16 19 15 14 13 25 28 22 20 12 17 33 35 40 44 49 51 52 52 53 53 54 55 56 57 57 58 60 60 58 59 60 61 62 62 62 63 63 64 63 62 63 63 64 63 63 63 63 62 62 63 62 62 61 61 61 61 61 61 62 63 63 64 64 64 64 64 65 65 64 64 64 64 63 63 64 64 64 63 63 63 62 62 62 61 62 62 62 61 60 59 59
16 19 21 19 15 15 14 15 16 17 17 8 20 23 13 16 30 39 43 47 48 49 51 52 52 52 53 54 54 55 56 57 58 58 57 57 58 58 59 58 59 59 61 61 61 61 63 63 63 63 63 63 63 62 62 62 62 62 62 61 61 62 61 61 63 63 63 64 63 63 64 64 64 64 64 64 64 63 64 63 64 64 64 63 64 63 62 62 62 62 62 61 61 61 61 60 60
13 17 19 19 19 21 15 18 15 18 12 8 14 20 15 18 34 42 44 46 47 48 50 51 51 52 53 53 54 54 55 55 56 57 58 59 59 59 59 59 59 58 60 60 61 62 63 63 63 63 63 63 63 63 62 62 62 62 62 61 61 61 61 61 63 63 63 63 63 63 63 64 63 63 62 63 63 63 63 63 64 64 64 64 64 62 62 62 62 62 62 61 61 61 61 61 60
18 15 12 13 21 23 28 25 22 16 7 12 20 23 22 25 36 41 43 45 49 49 50 50 51 52 52 53 53 54 54 55 55 56 57 58 59 59 59 58 59 58 58 61 61 61 61 62 63 63 63 63 63 63 62 61 62 62 62 62 61 61 60 61 61 62 62 62 62 62 62 62 62 62 62 62 63 63 63 63 64 64 64 64 64 62 62 62 61 62 62 61 61 61 61 60 59
13 14 13 12 15 18 18 20 19 10 10 18 20 24 23 20 35 43 49 49 50 50 49 49 50 51 52 53 53 53 53 53 54 54 55 56 57 58 58 58 58 58 57 58 59 59 60 61 63 63 63 63 63 63 62 61 61 62 62 62 61 61 61 60 61 61 62 62 62 61 62 62 62 62 62 63 63 63 63 63 64 64 64 63 63 63 62 62 62 61 62 61 61 61 61 60 60
14 16 15 13 11 12 5 13 6 5 9 13 26 31 32 36 40 46 48 49 49 50 50 50 50 51 52 52 52 52 51 51 52 52 53 54 56 57 57 57 57 57 56 56 57 59 60 61 63 63 62 62 63 62 60 61 61 61 61 61 61 61 61 60 60 61 61 62 62 62 61 61 61 61 61 61 62 62 63 62 62 62 63 63 63 62 62 62 61 61 61 61 61 61 61 60 60
13 13 15 11 6 5 1 9 10 13 14 19 18 29 34 41 44 47 48 50 51 51 51 51 50 50 51 51 51 50 50 50 51 51 52 53 53 55 57 57 57 57 56 56 56 58 59 60 60 61 61 61 60 60 60 60 60 61 61 61 61 61 61 61 61 61 61 62 62 62 62 61 61 61 61 61 61 62 62 62 62 62 63 63 62 62 62 62 62 61 61 61 61 61 61 60 60
12 14 11 14 14 10 2 10 3 8 10 15 21 24 32 34 38 49 49 50 50 50 50 50 50 50 51 50 50 49 49 49 50 50 50 51 52 54 55 57 57 57 57 56 56 58 59 59 60 60 60 60 60 60 59 59 60 60 61 62 61 60 61 61 61 61 61 61 61 62 62 62 61 61 61 61 62 62 62 62 62 62 62 62 62 62 62 62 62 61 61 61 61 61 61 60 59
17 15 13 12 13 20 13 17 16 15 11 15 28 24 33 37 46 49 50 48 48 49 49 49 49 49 49 49 49 48 48 48 48 48 49 49 50 51 53 54 56 57 57 56 56 57 58 60 60 59 58 58 58 59 59 59 60 60 61 62 61 60 60 61 61 60 60 61 61 62 62 62 62 61 61 61 62 62 62 62 62 61 61 61 61 61 61 62 61 61 61 61 61 61 60 60 59
20 11 13 16 17 17 13 12 20 14 15 12 23 38 41 45 47 47 48 48 48 48 48 48 48 48 48 47 47 47 47 47 47 47 47 47 48 49 50 51 53 54 56 57 58 58 58 59 60 59 58 58 58 59 59 59 60 60 61 62 61 60 61 61 61 61 61 61 61 62 63 62 62 62 61 62 62 62 62 62 61 60 60 61 61 61 62 62 61 61 61 60 60 60 60 60 59
15 13 12 18 21 21 15 9 13 9 8 9 26 34 36 34 31 45 46 46 47 47 47 47 47 46 46 46 45 45 45 45 46 46 46 46 46 47 48 49 51 52 53 54 55 56 58 58 59 59 58 57 58 59 59 59 59 60 60 60 60 60 61 61 61 61 61 61 61 61 62 61 61 61 61 61 61 61 61 63 61 60 60 60 61 61 61 61 61 61 60 60 60 60 60 59 59
13 13 16 14 11 9 19 15 4 3 2 11 29 31 35 32 33 42 43 45 45 46 46 45 45 45 44 44 44 44 44 44 44 45 45 45 45 46 47 48 49 50 52 53 53 55 56 58 59 58 58 58 59 60 59 59 59 59 60 61 61 60 60 61 61 60 60 61 61 61 61 61 61 61 61 60 60 60 61 61 60 59 59 60 60 61 61 61 61 60 59 59 59 60 60 59 59
16 14 15 23 20 19 12 12 15 12 4 19 27 29 31 40 41 41 43 45 46 45 45 44 44 43 43 43 43 43 43 43 43 43 44 44 45 46 46 47 48 49 50 51 52 53 53 55 56 58 59 59 59 60 60 59 59 59 59 60 61 61 61 60 60 60 60 60 61 61 61 61 61 61 61 61 60 60 60 60 60 59 59 60 60 60 60 60 60 60 59 59 59 59 59 59 58
13 21 26 22 24 24 19 22 12 10 9 10 22 23 29 37 44 44 45 46 46 46 44 44 43 42 42 42 42 42 42 42 42 42 43 43 44 45 45 46 47 48 48 49 50 51 52 53 54 55 56 58 59 59 59 59 59 59 59 60 61 61 61 61 60 60 60 61 61 61 61 61 61 61 61 60 60 59 60 60 59 59 59 59 59 59 59 60 59 59 59 59 59 59 59 58 59
18 28 26 23 20 16 12 12 23 21 19 14 17 16 30 43 47 44 43 43 44 44 43 42 41 41 41 41 41 41 41 41 42 42 42 43 43 44 45 45 46 46 47 47 48 49 50 50 51 52 53 55 56 58 60 59 59 60 60 60 61 61 61 61 60 60 60 60 61 61 60 61 61 61 61 61 60 59 59 59 59 59 58 59 59 59 59 59 59 58 58 58 59 59 59 59 58